カタログに戻る

LEMUR 2 CHRIS

Lost科学LEO
NORAD 40933·PAYLOAD·🇺🇸 United States

打ち上げ Sep 28, 2015 から Satish Dhawan Space Centre

Loading…

次のパス (今後24時間)

TLE

古いSource: Space-Track

元期: Feb 19, 2024, 08:18 UTC

1 40933U 15052D   24050.34614090  .00008209  00000-0  86789-3 0  9990
2 40933   6.0022  57.3568 0012335 326.7853  33.1501 14.84525301454530

AllMySatでLEMUR 2 CHRISをリアルタイム追跡

Download on the App Store